Aérodrome :
LOGIN :

S'inscrire | Disclaimer

   EN    FR    IT 

 










Légende :    VFR   VFR Marginal   IFR   IFR Intensif   IFR Très Intensif
Visi : 
Plafond : 
>= 8 km
>= 3000ft
5 à 8 km
1000 à 3000 ft
1500m à 5 km
500 à 1000 ft
800 à 1500m
200 à 500 ft
< 800m
< 200 ft
Symboles :   Orages  Brouillard  Fortes neiges  Fortes précipitations  Vent > 20 kt
SIGMETs :   Divers  Orages  Givrage  Turbulence  Onde Orograph.  Cendres Volcan.






- Altitude de l'aérodrome : 319 ft


EIME - Casement Air Base

DERNIER METAR :
  • 180700Z 23017KT 8000 -SHRA FEW012CB BKN035 04/03 Q1012

METARs EXPIRÉS :
  • 180600Z 22020KT 8000 -SHRA FEW018CB BKN025 05/02 Q1011
  • 180500Z 22022KT 8000 -RA FEW018 BKN030 04/02 Q1012

TAF TAF EIME
Valide du 18 à 06h jusqu'au 18 à 15h UTC


180500Z 1806/1815 23017KT 9999 FEW015 SCT030
TEMPO 1806/1812 24022G37KT
TEMPO 1806/1815 -SHRA SCT012 SCT018CB
PROB40
TEMPO 1810/1814 26025G40KT 4000 SHRAGS
BECMG 1814/1815 26017KT
TEMPO 1814/1815 27020G35KT



MET'MAP, la Météo Aéronautique d'un coup d'oeil ! - Copyright ORBIFLY Décembre 2007 - Disclaimer

ORBIFLY MET'MAP TEAM :

Programmation & Développement : Alexandra Zaïnal
Sur une idée originale de : Baudouin d'Aumeries
Assistance à la programmation : Marc-Olivier Méhu
Soutien technique & logistique : Manuel Goepfert

Contact : metmap@orbifly.com




SOURCES & CREDITS :

   NOAA